www.pogodaiklimat.ru

Погода и климат >> Архив погоды >> Великобритания >> Залив Лангдон


ПОГОДА в Заливе Лангдон

  • Прогноз погоды в Заливе Лангдон
  • Монитор погоды в Заливе Лангдон

АРХИВ ПОГОДЫ в Заливе Лангдон

Время (UTC), дата Ветер
(напр.,м/с)
 
Видим.   Явления Облачность Т
(С)
Тd
(С)
f
(%)
Тe
(С)
Тes
(С)
Комфортность P
(гПа)
Po
(гПа)
Тmin
(С)
Tmax
(С)
R
(мм)
R24
(мм)
S
(см)
16 13.09 СВ 6 н/о н/о +17.3 +12.1 71 +17 +17 1034.9 1020.8
17 13.09 СВ 6 н/о н/о +16.1 +11.4 74 +15 +15 1034.9 1020.7
18 13.09 СВ 6 н/о н/о +14.5 +11.2 81 +13 +13 1035.3 1021.0 +19.9
19 13.09 СВ 6 н/о н/о +13.5 +10.8 84 +11 +11 1035.6 1021.2
20 13.09 СВ 6 н/о н/о +13.5 +10.7 83 +11 +11 1035.5 1021.2
21 13.09 СВ 6 н/о н/о +13.2 +10.6 84 +11 +11 1036.0 1021.6
22 13.09 СВ 6 н/о н/о +12.8 +10.3 85 +10 +10 1035.7 1021.4
23 13.09 СВ 6 н/о н/о +12.7 +10.5 86 +10 +10 1035.8 1021.4
00 14.09 СВ 5 н/о н/о +12.9 +10.6 86 +11 +11 1035.5 1021.2
01 14.09 СВ 6 н/о н/о +13.1 +10.7 85 +11 +11 1035.1 1020.8
02 14.09 СВ 6 н/о н/о +12.9 +10.4 85 +11 +11 1034.9 1020.6
03 14.09 СВ 5 н/о н/о +12.5 +10.6 88 +10 +10 1034.9 1020.5
04 14.09 СВ 6 н/о н/о +13.0 +10.9 87 +11 +11 1034.4 1020.0
05 14.09 СВ 5 н/о н/о +12.2 +10.1 87 +10 +10 1034.1 1019.7
06 14.09 СВ 4 н/о н/о +12.1 +10.6 91 +10 +10 1034.0 1019.7 +11.7
07 14.09 СВ 4 н/о н/о +12.5 +11.2 92 +11 +11 1034.2 1019.8
08 14.09 В 4 н/о н/о +17.2 +13.1 77 +17 +17 1033.9 1019.7
09 14.09 В 4 н/о н/о +18.4 +13.1 71 +19 +19 1033.6 1019.5
10 14.09 В 5 н/о н/о +19.1 +13.1 68 +20 +20 1033.1 1019.1
11 14.09 В 4 н/о н/о +19.5 +12.4 64 +21 +21 комфорт 1032.8 1018.8
12 14.09 СВ 4 н/о н/о +19.9 +11.9 60 +22 +22 комфорт 1032.4 1018.5
13 14.09 В 4 н/о н/о +20.2 +12.9 63 +22 +22 комфорт 1031.8 1017.9
14 14.09 В 5 н/о н/о +19.6 +11.5 59 +21 +21 комфорт 1031.0 1017.1
15 14.09 В 5 н/о н/о +19.1 +11.5 61 +20 +20 1030.2 1016.2
16 14.09 В 4 н/о н/о +18.2 +12.7 70 +18 +18 1029.7 1015.7
17 14.09 В 3 н/о н/о +16.7 +12.9 78 +17 +17 1029.5 1015.4
18 14.09 СВ 2 н/о н/о +15.1 +12.6 85 +15 +15 1029.0 1014.9 +20.5
19 14.09 В 2 н/о н/о +13.9 +12.8 93 +13 +13 1029.4 1015.2
20 14.09 В 2 н/о н/о +14.1 +13.4 96 +14 +14 1029.1 1014.9
21 14.09 ЮВ 2 н/о н/о +14.3 +13.9 97 +14 +14 1028.5 1014.3
22 14.09 ЮВ 1 н/о н/о +13.9 +13.5 97 +14 +14 1028.2 1014.0
23 14.09 В 1 н/о н/о +13.5 +13.3 99 +14 +14 1027.6 1013.3
00 15.09 Ю 1 н/о н/о +12.5 +12.2 98 +12 +12 1027.4 1013.1
01 15.09 ЮЗ 1 н/о н/о +11.5 +11.2 98 +12 +12 1027.0 1012.7
02 15.09 З 2 н/о н/о +11.2 +11.0 99 +10 +10 1026.3 1012.0
03 15.09 З 4 н/о н/о +13.1 +10.8 86 +11 +11 1025.9 1011.7
04 15.09 З 5 н/о н/о +13.2 +10.0 81 +11 +11 1025.4 1011.2
05 15.09 З 5 н/о н/о +13.6 +9.3 75 +12 +12 1025.2 1011.0
06 15.09 СЗ 6 н/о н/о +14.0 +8.4 69 +12 +12 1024.9 1010.8 +11.1
07 15.09 СЗ 7 н/о н/о +15.7 +9.2 65 +14 +14 1024.8 1010.7
08 15.09 СЗ 6 н/о н/о +17.5 +10.3 63 +17 +17 1025.0 1011.0
09 15.09 ЮЗ 2 н/о н/о +18.6 +12.1 66 +20 +20 1025.1 1011.2
10 15.09 ЮЗ 3 н/о н/о +18.5 +13.5 73 +19 +19 1025.0 1011.1
11 15.09 ЮЗ 4 н/о н/о +19.0 +13.1 69 +20 +20 1025.0 1011.1
12 15.09 ЮЗ 5 н/о н/о +19.9 +14.0 69 +22 +22 комфорт 1024.4 1010.6
13 15.09 Ю 3 н/о н/о +19.7 +13.6 68 +22 +22 комфорт 1024.3 1010.4
14 15.09 ЮЗ 4 н/о н/о +19.4 +14.6 74 +21 +21 комфорт 1023.7 1009.9
15 15.09 ЮЗ 4 н/о н/о +19.2 +14.5 74 +21 +21 комфорт 1023.3 1009.4
16 15.09 ЮЗ 4 н/о н/о +18.6 +14.5 77 +19 +19 1023.1 1009.2
17 15.09 ЮЗ 3 н/о н/о +18.2 +14.4 78 +19 +19 1022.9 1008.9
18 15.09 ЮЗ 4 н/о н/о +16.7 +13.9 84 +16 +16 1022.8 1008.8 +20.1
19 15.09 ЮЗ 3 н/о н/о +16.5 +14.2 86 +16 +16 1022.9 1008.9
20 15.09 ЮЗ 3 н/о н/о +16.5 +14.8 90 +16 +16 1022.8 1008.8
21 15.09 ЮЗ 4 н/о н/о +16.6 +14.8 89 +16 +16 1022.6 1008.6
22 15.09 З 4 н/о н/о +16.8 +13.2 79 +16 +16 1022.3 1008.3
23 15.09 З 3 н/о н/о +15.9 +13.1 83 +15 +15 1022.1 1008.1
00 16.09 З 4 н/о н/о +16.2 +13.3 83 +16 +16 1021.6 1007.6
01 16.09 СЗ 6 н/о н/о +17.4 +13.6 78 +17 +17 1021.5 1007.5
02 16.09 СЗ 6 н/о н/о +17.2 +13.6 79 +16 +16 1021.0 1007.1
03 16.09 СЗ 5 н/о н/о +16.8 +13.7 82 +16 +16 1020.6 1006.7
04 16.09 СЗ 4 н/о н/о +16.6 +13.7 83 +16 +16 1020.5 1006.6
05 16.09 СЗ 5 н/о н/о +16.0 +13.7 86 +15 +15 1020.5 1006.5
06 16.09 СЗ 5 н/о н/о +15.8 +13.9 88 +15 +15 1020.4 1006.4 +15.7
07 16.09 СЗ 5 н/о н/о +16.5 +14.9 90 +16 +16 1020.8 1006.8
08 16.09 СЗ 4 н/о н/о +17.2 +14.9 86 +17 +17 1021.2 1007.3
09 16.09 СЗ 3 н/о н/о +18.0 +15.1 83 +18 +18 1021.4 1007.5
10 16.09 СЗ 4 н/о н/о +18.7 +15.2 80 +20 +20 1021.1 1007.2
11 16.09 СЗ 3 н/о н/о +19.4 +15.4 78 +22 +22 комфорт 1021.3 1007.5
12 16.09 СЗ 3 н/о н/о +18.7 +14.9 79 +20 +20 1021.4 1007.5
13 16.09 СЗ 3 н/о н/о +19.6 +15.0 75 +22 +22 комфорт 1021.3 1007.5
14 16.09 С 3 н/о н/о +19.8 +15.1 74 +22 +22 комфорт 1021.2 1007.4
15 16.09 С 4 н/о н/о +18.8 +14.3 75 +20 +20 1021.3 1007.4
16 16.09 С 4 н/о н/о +17.8 +14.5 81 +18 +18 1021.3 1007.4
17 16.09 С 5 н/о н/о +16.7 +15.5 93 +16 +16 1021.4 1007.4
18 16.09 С 5 н/о н/о +15.9 +14.8 93 +15 +15 1021.8 1007.8 +20.1
19 16.09 С 5 н/о н/о +15.4 +14.7 96 +14 +14 1022.1 1008.1
20 16.09 С 3 н/о н/о +15.0 +14.6 97 +14 +14 1022.5 1008.5
21 16.09 СВ 3 н/о н/о +14.7 +14.2 97 +14 +14 1022.8 1008.7
22 16.09 С 2 н/о н/о +14.6 +14.1 97 +14 +14 1022.9 1008.8
23 16.09 С 3 н/о н/о +14.3 +13.8 97 +13 +13 1022.9 1008.8
00 17.09 С 3 н/о н/о +14.3 +13.7 96 +13 +13 1022.7 1008.6
01 17.09 С 3 н/о н/о +13.9 +13.5 97 +13 +13 1022.8 1008.7
02 17.09 С 3 н/о н/о +13.7 +13.2 97 +12 +12 1022.5 1008.4
03 17.09 СЗ 3 н/о н/о +12.9 +12.3 96 +11 +11 1022.8 1008.6
04 17.09 СЗ 3 н/о н/о +12.5 +11.9 96 +11 +11 1022.7 1008.5
05 17.09 СЗ 4 н/о н/о +13.1 +12.1 94 +11 +11 1022.7 1008.6
06 17.09 СЗ 5 н/о н/о +12.4 +11.1 92 +10 +10 1022.9 1008.7 +12.1
07 17.09 СЗ 5 н/о н/о +12.4 +11.7 95 +10 +10 1023.5 1009.3
08 17.09 СЗ 6 н/о н/о +14.0 +11.5 85 +12 +12 1023.9 1009.8
09 17.09 С 6 н/о н/о +15.7 +11.7 77 +14 +14 1024.0 1010.0
10 17.09 С 6 н/о н/о +16.9 +9.8 63 +16 +16 1024.4 1010.4
11 17.09 С 5 н/о н/о +18.0 +9.0 56 +18 +18 1024.3 1010.4
12 17.09 С 6 н/о н/о +18.9 +8.5 51 +19 +19 1024.4 1010.5
13 17.09 С 7 н/о н/о +19.2 +7.9 48 +19 +19 1024.5 1010.6
14 17.09 СВ 7 н/о н/о +18.2 +7.3 49 +18 +18 1024.7 1010.8
15 17.09 СВ 8 н/о н/о +17.3 +8.5 56 +16 +16 1024.8 1010.9
16 17.09 СВ 7 н/о н/о +16.0 +8.3 60 +15 +15 1025.2 1011.1
17 17.09 СВ 7 н/о н/о +15.0 +8.2 64 +13 +13 1025.5 1011.3
18 17.09 СВ 7 н/о н/о +13.9 +9.1 73 +12 +12 1025.6 1011.5 +19.4
19 17.09 СВ 7 н/о н/о +12.7 +7.6 71 +10 +10 1026.3 1012.1
20 17.09 СВ 7 н/о н/о +12.4 +6.9 69 +10 +10 1026.6 1012.3
21 17.09 СВ 6 н/о н/о +11.6 +5.4 66 +9 +9 1027.2 1012.8
22 17.09 С 5 н/о н/о +11.1 +6.1 71 +8 +8 1027.5 1013.2
23 17.09 С 5 н/о н/о +9.8 +5.3 74 +7 +7 1027.7 1013.3
00 18.09 С 5 н/о н/о +9.1 +5.7 79 +6 +6 1027.8 1013.4
01 18.09 С 5 н/о н/о +8.5 +5.9 84 +5 +5 1027.9 1013.4
02 18.09 С 5 н/о н/о +8.4 +6.3 87 +5 +5 1027.7 1013.3
03 18.09 С 5 н/о н/о +9.3 +7.1 86 +6 +6 1027.7 1013.3
04 18.09 С 5 н/о н/о +8.9 +6.6 85 +6 +6 1027.7 1013.3
05 18.09 С 5 н/о н/о +9.0 +7.2 88 +5 +5 1028.0 1013.5
06 18.09 С 5 н/о н/о +9.7 +7.6 87 +6 +6 1028.3 1013.9 +8.3
07 18.09 С 5 н/о н/о +10.9 +8.3 84 +8 +8 1028.8 1014.4
08 18.09 С 5 н/о н/о +12.4 +8.9 79 +10 +10 1029.1 1014.9
09 18.09 С 7 н/о н/о +16.3 +9.4 64 +15 +15 1029.5 1015.4
10 18.09 СВ 7 н/о н/о +17.5 +9.2 58 +17 +17 1029.5 1015.5
11 18.09 СВ 7 н/о н/о +17.6 +8.5 55 +17 +17 1029.4 1015.4
12 18.09 СВ 6 н/о н/о +17.1 +7.7 54 +16 +16 1029.4 1015.3
13 18.09 СВ 6 н/о н/о +17.5 +8.0 54 +17 +17 1029.1 1015.1
14 18.09 СВ 7 н/о н/о +17.0 +7.6 54 +16 +16 1029.1 1015.0
15 18.09 СВ 7 н/о н/о +16.1 +7.1 55 +15 +15 1029.0 1014.9
16 18.09 СВ 6 н/о н/о +16.0 +6.5 53 +15 +15 1028.8 1014.7
17 18.09 СВ 5 н/о н/о +14.6 +7.2 61 +13 +13 1029.0 1014.8
18 18.09 СВ 6 н/о н/о +13.1 +6.9 66 +11 +11 1029.1 1014.9 +18.0
19 18.09 СВ 6 н/о н/о +12.6 +7.3 70 +10 +10 1029.4 1015.1
20 18.09 СВ 5 н/о н/о +12.4 +7.5 72 +10 +10 1029.8 1015.5
21 18.09 СВ 5 н/о н/о +12.2 +7.5 73 +10 +10 1030.0 1015.7
22 18.09 СВ 6 н/о н/о +12.2 +7.3 72 +10 +10 1030.4 1016.0
23 18.09 СВ 5 н/о н/о +12.0 +7.4 73 +10 +10 1030.5 1016.2
00 19.09 СВ 5 н/о н/о +11.8 +8.1 78 +9 +9 1030.6 1016.2
01 19.09 СВ 4 н/о н/о +10.9 +7.6 80 +8 +8 1030.5 1016.1
02 19.09 СВ 4 н/о н/о +9.5 +6.9 84 +7 +7 1030.5 1016.0
03 19.09 С 4 н/о н/о +9.0 +7.2 88 +6 +6 1030.5 1016.0
04 19.09 С 4 н/о н/о +9.1 +7.5 90 +6 +6 1030.2 1015.8
05 19.09 С 4 н/о н/о +8.7 +7.3 91 +5 +5 1030.4 1016.0
06 19.09 С 4 н/о н/о +8.9 +7.6 92 +6 +6 1030.8 1016.4 +8.7
07 19.09 С 4 н/о н/о +10.6 +9.0 90 +8 +8 1031.2 1016.8
08 19.09 С 4 н/о н/о +11.8 +9.0 83 +10 +10 1031.6 1017.3
09 19.09 С 3 н/о н/о +14.0 +10.0 77 +13 +13 1031.8 1017.6
10 19.09 ЮВ 4 н/о н/о +15.0 +10.9 76 +14 +14 1031.9 1017.7
11 19.09 В 3 н/о н/о +15.8 +11.2 74 +15 +15 1031.8 1017.7
12 19.09 В 4 н/о н/о +16.2 +11.2 72 +16 +16 1031.8 1017.6
13 19.09 В 5 н/о н/о +17.4 +10.3 63 +17 +17 1031.2 1017.1
14 19.09 В 5 н/о н/о +18.2 +10.1 59 +18 +18 1030.9 1016.9
15 19.09 В 6 н/о н/о +16.7 +10.3 66 +16 +16 1030.8 1016.7
16 19.09 СВ 6 н/о н/о +16.6 +9.5 63 +16 +16 1030.4 1016.3
17 19.09 СВ 6 н/о н/о +15.4 +9.2 67 +14 +14 1030.2 1016.0
18 19.09 СВ 6 н/о н/о +13.8 +9.5 75 +12 +12 1030.3 1016.0 +18.6
19 19.09 СВ 6 н/о н/о +13.2 +10.2 82 +11 +11 1030.4 1016.2
20 19.09 СВ 5 н/о н/о +13.5 +10.9 84 +11 +11 1030.6 1016.4
21 19.09 В 7 н/о н/о +13.9 +11.0 83 +12 +12 1030.4 1016.2
22 19.09 В 6 н/о н/о +13.8 +10.7 82 +12 +12 1030.3 1016.1
23 19.09 В 6 н/о н/о +14.2 +10.7 79 +12 +12 1030.1 1015.9
00 20.09 В 7 н/о н/о +14.4 +10.8 79 +12 +12 1030.0 1015.8
01 20.09 В 7 н/о н/о +14.3 +10.4 77 +12 +12 1029.9 1015.7
02 20.09 В 7 н/о н/о +14.0 +9.7 75 +12 +12 1029.5 1015.2
03 20.09 В 6 н/о н/о +13.7 +9.1 74 +12 +12 1029.2 1015.0
04 20.09 В 7 н/о н/о +13.4 +8.9 74 +11 +11 1028.6 1014.4
05 20.09 В 6 н/о н/о +13.4 +8.9 74 +11 +11 1028.0 1013.8
06 20.09 ЮВ 6 н/о н/о +13.4 +8.9 74 +11 +11 1028.1 1013.9 +13.1
07 20.09 В 6 н/о н/о +14.6 +9.0 69 +13 +13 1028.2 1014.0
08 20.09 ЮВ 7 н/о н/о +15.3 +8.7 65 +14 +14 1028.5 1014.3
09 20.09 В 6 н/о н/о +16.5 +9.3 62 +15 +15 1028.3 1014.3
10 20.09 В 8 н/о н/о +16.9 +7.5 54 +16 +16 1027.7 1013.7
11 20.09 В 8 н/о н/о +17.1 +7.3 52 +16 +16 1027.0 1013.0
12 20.09 В 7 н/о н/о +17.5 +7.8 53 +17 +17 1026.5 1012.5
13 20.09 В 8 н/о н/о +17.8 +8.6 55 +17 +17 1025.6 1011.6
14 20.09 В 9 н/о н/о +17.8 +8.4 54 +17 +17 1024.7 1010.8
15 20.09 В 10
{13}
н/о н/о +17.3 +9.5 60 +16 +16 1023.9 1009.9

 

Местоположение метеостанции Залив Лангдон (Великобритания): широта 51.13 долгота 1.35 высота над уровнем моря 117 м.

В архиве по умолчанию представлена погода в Заливе Лангдон за последнюю неделю. Архивные данные за месяц целиком и за предыдущие месяцы, начиная с января 2011 года, Вы можете получить, выбрав интересующий диапазон дат из раскрывающегося списка и нажав кнопку "Ввод!".


*Определитесь, кто Вы:
робот инопланетянин человек

Внимание! Время в таблицах - всемирное. Для получения местного времени необходимо прибавить поправку, которая равна 0 ч.

Смотрите также архив погоды в соседних городах и на ближайших метеорологических станциях:

Погода в Кент (Великобритания) (25 км)
Погода в Булонь-сюр-Мере (Франция) (48 км)
Погода в Шоберинессе (Великобритания) (59 км)
Погода в Дюнкерке (Франция) (69 км)
Погода в Ле-Туке-Пари-Плаже (Франция) (70 км)
Погода в Херстмонсо (Великобритания) (76 км)
Погода в Грейвзенде (Великобритания) (82 км)
Погода в Коксейде (Бельгия) (91 км)
Погода в Ротамстеде (Великобритания) (101 км)
Погода на Аэродроме Кенли (Великобритания) (101 км)

Пояснения к столбцам:

Ветер - указаны скорость ветра в м/с - средняя за 10 мин, порывы в срок и между сроками (в фигурных скобках) и направление, откуда дует ветер: С - северный, СВ - северо-восточный, В - восточный, ЮВ - юго-восточный, Ю - южный, ЮЗ - юго-западный, З - западный, СЗ - северо-западный.
Видимость - горизонтальная дальность видимости в метрах или километрах. При видимости от 1 до 10 км при отсутствии осадков обычно наблюдается дымка, при ухудшении видимости до 1 км и менее - туман. В сухую погоду видимость может ухудшаться дымом, пылью или мглою.
Явления - указаны атмосферные явления, наблюдавшиеся в срок или в последний час перед сроком; фигурными скобками обозначены явления, наблюдавшиеся между сроками (за 1-3 часа до срока); квадратными скобками обозначены град или гололедные отложения с указанием их диаметра в мм.
Облачность - указаны через наклонную черту общая и нижняя облачность в баллах и высота нижней границы облаков в метрах; квадратными скобками обозначены формы облаков: Ci - перистые, Cs - перисто-слоистые, Cc - перисто-кучевые, Ac - высококучевые, As - высокослоистые, Sc - слоисто-кучевые, Ns - слоисто-дождевые, Cu - кучевые, Cb - кучево-дождевые. Подробнее классификацию облаков см. в Атласе облаков (PDF).
T - Температура воздуха - температура, измеренная на высоте 2 м над землей.
Td - Температура точки росы - температура, при понижении до которой содержащийся в воздухе водяной пар достигнет насыщения.
f - Относительная влажность воздуха - влажноcть воздуха, измеренная на высоте 2 м над землей.
Te - Эффективная температура - температура, которую ощущает одетый по сезону человек в тени. Характеристика душности погоды. При расчете учитывается влияние влажности воздуха и скорости ветра на теплоощущения человека.
Tes - Эффективная температура на солнце - температура, которую ощущает человек, с поправкой на солнечный нагрев. Характеристика знойности погоды. Зависит от высоты солнца над горизонтом, облачности и скорости ветра. Ночью, в пасмурную погоду, а также при ветре 12 м/с и более поправка равна нулю.
P - Атмосферное давление - приведенное к уровню моря атмосферное давление.
Po - Атмосферное давление - измеренное на уровне метеостанции атмосферное давление.
Tmin - Минимальная температура - минимум температуры воздуха на высоте 2 м над землей.
Tmax - Максимальная температура - максимум температуры воздуха на высоте 2 м над землей.
R - Количество осадков - Количество выпавших осадков за период времени, мм. При наведении курсора мыши на число - период времени, за который выпало указанное количество осадков.
R24 - Количество осадков - Количество выпавших осадков за 24 часа, мм.
S - Снежный покров - Высота снежного покрова, см. При наведении курсора мыши на число - состояние снежного покрова и степень покрытия местности в баллах.